Regional Weather Roundup
Issued by NWS

Home | Current Version | Previous Version | Graphics & Text | Print | Product List | Glossary On
Versions: 1 2 3 4 5 6 7 8 9 10 11 12 13 14 15 16 17 18 19 20 21 22 23 24 25 26 27 28 29 30 31 32 33 34 35 36 37 38 39 40 41 42 43 44 45 46 47 48 49 50
000
ASUS43 KOAX 171310
RWRNE

WEATHER ROUNDUP FOR NEBRASKA
NATIONAL WEATHER SERVICE OMAHA NE
800 AM CDT TUE OCT 17 2017

NOTES: SATELLITE DATA IS BEING USED TO AUGMENT CLOUD COVER ABOVE
       12000 FEET.
       "FAIR" INDICATES FEW OR NO CLOUDS BELOW 12,000 FEET WITH NO
       SIGNIFICANT WEATHER AND/OR OBSTRUCTIONS TO VISIBILITY.


NEZ001>004-019>022-054>056-171400-
NEBRASKA PANHANDLE

CITY           SKY/WX    TMP DP  RH WIND       PRES   REMARKS
SCOTTSBLUFF    CLEAR     29  23  78 NW3       30.17S
ALLIANCE       CLOUDY    27  21  78 W9        30.14F WCI  18
CHADRON        CLOUDY    33  23  66 W3        30.12S
GORDON         FAIR      30  26  84 CALM      30.12S
KIMBALL        CLOUDY    35  21  55 W10       30.20F WCI  27
SIDNEY         CLOUDY    35  21  56 W8        30.19S WCI  29
$$

NEZ057>060-069>072-079>082-171400-
SOUTHWEST NEBRASKA

CITY           SKY/WX    TMP DP  RH WIND       PRES   REMARKS
NORTH PLATTE   CLEAR     33  31  92 NW5       30.15S WCI  29
IMPERIAL       CLOUDY    36  28  73 W6        30.18S WCI  31
LEXINGTON      CLEAR     39  34  82 NW8       30.13S WCI  34
MCCOOK         CLEAR     35  32  88 SW8       30.15S WCI  29
OGALLALA       CLOUDY    32  30  91 CALM      30.18S
$$

NEZ005>010-023>029-035>040-094-171400-
NORTH CENTRAL NEBRASKA

CITY           SKY/WX    TMP DP  RH WIND       PRES   REMARKS
VALENTINE      CLEAR     37  30  75 SW5       30.09F WCI  33
AINSWORTH      CLEAR     42  33  72 W6        30.10S
BROKEN BOW     CLEAR     37  33  85 NE5       30.11S WCI  33
O`NEILL        CLEAR     45  38  78 CALM      30.08S
ORD            CLEAR     35  32  88 NW6       30.09S WCI  30
THEDFORD       CLEAR     35  31  85 CALM      30.14S
$$

NEZ041-046>049-061>064-073>077-083>087-171400-
SOUTH CENTRAL NEBRASKA

CITY           SKY/WX    TMP DP  RH WIND       PRES   REMARKS
GRAND ISLAND   CLEAR     39  37  92 W5        30.09S
AURORA         CLEAR     40  37  87 SW5       30.09R
HASTINGS       CLEAR     40  35  83 SW3       30.10S
HEBRON         CLEAR     46  39  78 CALM      30.11S
HOLDREGE       CLEAR     41  36  82 NW8       30.10S
KEARNEY        CLEAR     40  35  83 NW7       30.10S
YORK           CLEAR     39  39 100 CALM      30.09S
$$

NEZ011>018-030>034-042>045-171400-
NORTHEAST NEBRASKA

CITY           SKY/WX    TMP DP  RH WIND       PRES   REMARKS
NORFOLK        PTCLDY    37  36  96 CALM      30.05F
ALBION         CLEAR     37  35  92 NW3       30.08S
BLAIR          PTCLDY    45  40  83 S7        30.09S
COLUMBUS       CLEAR     43  39  86 SW3       30.09S
FREMONT        CLEAR     45  40  82 S3        30.09F
TEKAMAH        CLEAR     42  39  89 SE6       30.08F
WAYNE          CLEAR     35  33  91 SW6       30.07S WCI  30
$$

NEZ050>053-065>068-078-088>093-171400-
SOUTHEAST NEBRASKA

CITY           SKY/WX    TMP DP  RH WIND       PRES   REMARKS
LINCOLN        CLEAR     44  39  82 S7        30.11F
OMAHA EPPLEY   PTCLDY    47  40  76 S9        30.11S
BEATRICE       CLEAR     47  41  80 S6        30.12S
FALLS CITY     CLEAR     48  40  73 S8        30.14S
NEBRASKA CITY  CLEAR     43  42  95 S6        30.13F
PLATTSMOUTH    CLEAR     46  42  85 SE8       30.11F
$$

NEZ044-045-051>053-067-171400-
OMAHA AREA

CITY           SKY/WX    TMP DP  RH WIND       PRES   REMARKS
OMAHA EPPLEY   PTCLDY    47  40  76 S9        30.11S
BLAIR          PTCLDY    45  40  83 S7        30.09S
FREMONT        CLEAR     45  40  82 S3        30.09F
MILLARD        CLEAR     46  42  84 CALM      30.11S
PLATTSMOUTH    CLEAR     46  42  85 SE8       30.11F
WAHOO          FAIR      43  38  83 CALM      30.09S
$$




USA.gov is the U.S. government's official web portal to all federal, state and local government web resources and services.